Location: Gleizolles
(44.4833°N, 6.7667°E)
Time: 21:29:12
(UTC+00:00)

A-11 Canister half - Pass Details

Date: 04 July 2024
Orbit: 1524 x 1684 km, 47.3° (Epoch: 18 July)

Event Time Altitude Azimuth Distance (km) Brightness Sun altitude
Rises 07:13:22 0° 195° (SSW) 4,851 11.5 32.6°
Reaches altitude 10° 07:17:09 10° 184° (S) 3,844 11.1 33.3°
Maximum altitude 07:24:51 27° 131° (SE) 2,679 11.4 34.7°
Drops below altitude 10° 07:32:22 10° 78° (ENE) 3,755 12.3 36.0°
Sets 07:35:58 0° 68° (ENE) 4,721 12.4 36.6°
